When you browse on this site, cookies collect data to enhance your experience and personalize the content and advertising you see.
Visit our Privacy Policy to learn more. By continuing to use the site, you agree to this use of cookies and data.
  • In United Kingdom
  • List of Countries
  • For 7 days
  • Water Temperature
  • Weather Map
  • Weather Widgets
  • user-avatar
    Login

    Hourly Weather Manchester

    Today, 28 May, Thursday

    Time Temperature Precipitation Wind Pressure Humidity
    00:00 +13°C° 0 mm 2 mps 772 mmHg 74%
    01:00 +13°C° 0 mm 2 mps 772 mmHg 74%
    02:00 +12°C° 0 mm 2 mps 772 mmHg 75%
    03:00 +12°C° 0 mm 1 mps 771 mmHg 76%
    04:00 +13°C° 0 mm 1 mps 771 mmHg 75%
    05:00 +13°C° 0 mm 1 mps 771 mmHg 74%
    06:00 +14°C° 0 mm 1 mps 771 mmHg 73%
    07:00 +15°C° 0 mm 2 mps 771 mmHg 69%
    08:00 +17°C° 0 mm 2 mps 771 mmHg 65%
    09:00 +19°C° 0 mm 2 mps 771 mmHg 60%
    10:00 +20°C° 0 mm 2 mps 770 mmHg 58%
    11:00 +21°C° 0 mm 3 mps 770 mmHg 56%
    12:00 +23°C° 0 mm 2 mps 770 mmHg 54%
    13:00 +24°C° 0 mm 2 mps 769 mmHg 53%
    14:00 +24°C° 0 mm 2 mps 769 mmHg 52%
    15:00 +24°C° 0 mm 2 mps 768 mmHg 51%
    16:00 +24°C° 0 mm 2 mps 768 mmHg 54%
    17:00 +24°C° 0 mm 2 mps 768 mmHg 57%
    18:00 +23°C° 0 mm 2 mps 768 mmHg 60%
    19:00 +21°C° 0 mm 2 mps 768 mmHg 64%
    20:00 +19°C° 0 mm 2 mps 768 mmHg 69%
    21:00 +17°C° 0 mm 2 mps 768 mmHg 74%
    22:00 +16°C° 0 mm 2 mps 768 mmHg 75%
    23:00 +16°C° 0 mm 2 mps 768 mmHg 76%

    Tomorrow, 29 May, Friday

    Time Temperature Precipitation Wind Pressure Humidity
    00:00 +15°C° 0 mm 1 mps 768 mmHg 77%
    01:00 +14°C° 0 mm 1 mps 768 mmHg 78%
    02:00 +14°C° 0 mm 1 mps 768 mmHg 79%
    03:00 +13°C° 0 mm 1 mps 768 mmHg 80%
    04:00 +14°C° 0 mm 1 mps 768 mmHg 75%
    05:00 +14°C° 0 mm 1 mps 768 mmHg 70%
    06:00 +15°C° 0 mm 1 mps 767 mmHg 64%
    07:00 +16°C° 0 mm 2 mps 767 mmHg 58%
    08:00 +18°C° 0 mm 2 mps 767 mmHg 52%
    09:00 +19°C° 0 mm 3 mps 767 mmHg 46%
    10:00 +20°C° 0 mm 3 mps 767 mmHg 45%
    11:00 +21°C° 0 mm 3 mps 767 mmHg 45%
    12:00 +22°C° 0 mm 3 mps 766 mmHg 44%
    13:00 +22°C° 0 mm 3 mps 766 mmHg 45%
    14:00 +24°C° 0 mm 3 mps 765 mmHg 47%
    15:00 +24°C° 0 mm 3 mps 765 mmHg 48%
    16:00 +22°C° 0 mm 3 mps 765 mmHg 52%
    17:00 +22°C° 0 mm 3 mps 764 mmHg 56%
    18:00 +21°C° 0 mm 3 mps 764 mmHg 60%
    19:00 +20°C° 0 mm 3 mps 764 mmHg 66%
    20:00 +18°C° 0 mm 2 mps 764 mmHg 72%
    21:00 +16°C° 0 mm 2 mps 764 mmHg 78%
    22:00 +16°C° 0 mm 2 mps 765 mmHg 78%
    23:00 +15°C° 0 mm 2 mps 765 mmHg 79%

    Day after tomorrow, 30 May, Saturday

    Time Temperature Precipitation Wind Pressure Humidity
    00:00 +14°C° 0 mm 2 mps 765 mmHg 79%
    01:00 +13°C° 0 mm 2 mps 765 mmHg 79%
    02:00 +12°C° 0 mm 2 mps 765 mmHg 80%
    03:00 +12°C° 0 mm 2 mps 765 mmHg 80%
    04:00 +12°C° 0 mm 2 mps 765 mmHg 75%
    05:00 +13°C° 0 mm 2 mps 765 mmHg 71%
    06:00 +13°C° 0 mm 1 mps 765 mmHg 66%
    07:00 +15°C° 0 mm 2 mps 765 mmHg 60%
    08:00 +16°C° 0 mm 3 mps 764 mmHg 53%
    09:00 +17°C° 0 mm 4 mps 764 mmHg 47%
    10:00 +18°C° 0 mm 4 mps 764 mmHg 46%
    11:00 +19°C° 0 mm 4 mps 764 mmHg 45%
    12:00 +20°C° 0 mm 4 mps 764 mmHg 44%
    13:00 +21°C° 0 mm 4 mps 764 mmHg 46%
    14:00 +21°C° 0 mm 4 mps 763 mmHg 49%
    15:00 +22°C° 0 mm 4 mps 763 mmHg 51%
    16:00 +21°C° 0 mm 4 mps 763 mmHg 56%
    17:00 +20°C° 0 mm 4 mps 763 mmHg 60%
    18:00 +20°C° 0 mm 4 mps 763 mmHg 65%
    19:00 +18°C° 0 mm 4 mps 763 mmHg 68%
    20:00 +17°C° 0 mm 4 mps 764 mmHg 71%
    21:00 +14°C° 0 mm 4 mps 764 mmHg 75%
    22:00 +13°C° 0 mm 4 mps 764 mmHg 76%
    23:00 +13°C° 0 mm 4 mps 764 mmHg 78%

    31 May, Sunday

    Time Temperature Precipitation Wind Pressure Humidity
    00:00 +12°C° 0 mm 3 mps 764 mmHg 79%
    01:00 +11°C° 0 mm 3 mps 764 mmHg 81%
    02:00 +11°C° 0 mm 3 mps 764 mmHg 83%
    03:00 +10°C° 0 mm 2 mps 764 mmHg 85%
    04:00 +12°C° 0 mm 2 mps 764 mmHg 83%
    05:00 +12°C° 0 mm 2 mps 764 mmHg 81%
    06:00 +12°C° 0 mm 3 mps 764 mmHg 79%
    07:00 +13°C° 0 mm 3 mps 764 mmHg 73%
    08:00 +16°C° 0 mm 3 mps 764 mmHg 67%
    09:00 +17°C° 0 mm 4 mps 764 mmHg 61%
    10:00 +19°C° 0 mm 3 mps 764 mmHg 57%
    11:00 +20°C° 0 mm 3 mps 764 mmHg 53%
    12:00 +21°C° 0 mm 3 mps 765 mmHg 49%
    13:00 +21°C° 0 mm 3 mps 764 mmHg 49%
    14:00 +22°C° 0 mm 3 mps 764 mmHg 49%
    15:00 +22°C° 0 mm 3 mps 764 mmHg 50%
    16:00 +21°C° 0 mm 3 mps 764 mmHg 54%
    17:00 +21°C° 0 mm 3 mps 764 mmHg 58%
    18:00 +20°C° 0 mm 3 mps 764 mmHg 62%
    19:00 +19°C° 0 mm 3 mps 764 mmHg 68%
    20:00 +17°C° 0 mm 3 mps 764 mmHg 73%
    21:00 +16°C° 0 mm 3 mps 764 mmHg 78%
    22:00 +14°C° 0 mm 3 mps 764 mmHg 77%
    23:00 +14°C° 0 mm 2 mps 764 mmHg 77%

    1 June, Monday

    Time Temperature Precipitation Wind Pressure Humidity
    00:00 +13°C° 0 mm 2 mps 764 mmHg 76%
    01:00 +13°C° 0 mm 2 mps 764 mmHg 76%
    02:00 +13°C° 0 mm 1 mps 764 mmHg 75%
    03:00 +12°C° 0 mm 1 mps 764 mmHg 75%
    04:00 +13°C° 0 mm 1 mps 764 mmHg 73%
    05:00 +13°C° 0 mm 1 mps 764 mmHg 71%
    06:00 +14°C° 0 mm 1 mps 764 mmHg 70%
    07:00 +16°C° 0 mm 1 mps 764 mmHg 64%
    08:00 +17°C° 0 mm 2 mps 763 mmHg 59%
    09:00 +19°C° 0 mm 2 mps 763 mmHg 53%
    10:00 +20°C° 0 mm 2 mps 763 mmHg 50%
    11:00 +21°C° 0 mm 2 mps 763 mmHg 47%
    12:00 +21°C° 0 mm 3 mps 763 mmHg 44%
    13:00 +22°C° 0 mm 3 mps 762 mmHg 44%
    14:00 +22°C° 0 mm 3 mps 762 mmHg 44%
    15:00 +22°C° 0 mm 3 mps 762 mmHg 45%
    16:00 +22°C° 0 mm 3 mps 762 mmHg 48%
    17:00 +21°C° 0 mm 3 mps 761 mmHg 52%
    18:00 +20°C° 0 mm 3 mps 761 mmHg 56%
    19:00 +18°C° 0 mm 3 mps 761 mmHg 60%
    20:00 +17°C° 0 mm 3 mps 761 mmHg 65%
    21:00 +14°C° 0 mm 3 mps 761 mmHg 69%
    22:00 +14°C° 0 mm 2 mps 761 mmHg 72%
    23:00 +13°C° 0 mm 2 mps 761 mmHg 74%

    2 June, Tuesday

    Time Temperature Precipitation Wind Pressure Humidity
    00:00 +13°C° 0 mm 1 mps 760 mmHg 77%
    01:00 +12°C° 0 mm 1 mps 760 mmHg 78%
    02:00 +12°C° 0 mm 1 mps 759 mmHg 79%
    03:00 +11°C° 0 mm 1 mps 759 mmHg 81%
    04:00 +11°C° 0 mm 0 mps 759 mmHg 78%
    05:00 +12°C° 0 mm 0 mps 758 mmHg 75%
    06:00 +13°C° 0 mm 0 mps 758 mmHg 73%
    07:00 +15°C° 0 mm 0 mps 758 mmHg 65%
    08:00 +16°C° 0 mm 0 mps 757 mmHg 58%
    09:00 +18°C° 0 mm 0 mps 757 mmHg 51%
    10:00 +21°C° 0 mm 1 mps 757 mmHg 47%
    11:00 +22°C° 0 mm 1 mps 756 mmHg 44%
    12:00 +23°C° 0 mm 1 mps 756 mmHg 40%
    13:00 +23°C° 0 mm 1 mps 756 mmHg 41%
    14:00 +23°C° 0 mm 2 mps 755 mmHg 42%
    15:00 +23°C° 0 mm 2 mps 755 mmHg 42%
    16:00 +21°C° 0 mm 2 mps 754 mmHg 49%
    17:00 +20°C° 0 mm 3 mps 754 mmHg 57%
    18:00 +19°C° 0 mm 3 mps 754 mmHg 64%
    19:00 +18°C° 0.3 mm 3 mps 754 mmHg 70%
    20:00 +17°C° 0.3 mm 3 mps 754 mmHg 76%
    21:00 +16°C° 0.3 mm 3 mps 754 mmHg 83%
    22:00 +16°C° 0.4 mm 3 mps 754 mmHg 85%
    23:00 +16°C° 0.4 mm 3 mps 753 mmHg 87%
    Show more